#timestamp,LO_Frequency,Hit,StdDev 
1514707215.9,286047002.1,N
1514707235.7,286047004.1,N
1514707255.6,286047001.8,N
1514707275.4,286047000.8,N
1514707295.2,286047000.7,N
1514707315.1,286047000.7,N
1514707316.0,286047000.7,N
1514707335.8,286047000.1,N
1514707355.7,286046999.5,N
1514707375.5,286046997.1,N
1514707395.3,286046996.7,N
1514707415.2,286046994.9,Y
1514707435.0,286046999.4,P
1514707435.9,286046999.4,P
1514707455.8,286046998.5,P
1514707475.6,286047002.2,Y
1514707495.4,286047004.0,P
1514707515.3,286047000.5,N
1514707535.1,286047002.0,N
1514707555.9,286047000.4,N
1514707575.7,286047003.8,N
1514707595.5,286047004.2,N
1514707615.4,286047001.6,N
1514707635.2,286047004.1,N
1514707655.1,286047002.1,N
1514707656.0,286047002.1,N
1514707675.8,286046998.8,N
1514707695.6,286046996.8,N
1514707715.5,286046996.8,N
1514707735.3,286046999.3,N
1514707755.1,286046998.8,N
1514707775.9,286046998.8,N
1514707795.7,286046998.5,N
1514707815.6,286046999.5,N
1514707835.4,286046996.9,N
1514707855.2,286046998.9,N
1514707875.1,286047001.2,N
1514707876.0,286047001.2,N
1514707895.8,286047000.7,N
1514707915.7,286046998.7,N
1514707935.5,286047001.6,N
1514707955.3,286046999.8,N
1514707975.2,286046998.3,N
1514707995.0,286047002.7,N
1514707995.9,286047002.7,N
1514708015.7,286047004.4,N
1514708035.6,286047004.2,N
1514708055.4,286047003.7,N
1514708075.3,286047003.0,N
1514708095.1,286047003.4,N
1514708096.0,286047003.4,N
1514708115.8,286047003.9,N
1514708135.7,286047001.9,N
1514708155.5,286047000.0,N
1514708175.4,286046999.5,N
1514708195.2,286046999.0,N
1514708215.0,286046999.0,N
1514708215.9,286046999.0,N
1514708235.8,286046999.2,N
1514708255.6,286046997.1,N
1514708275.4,286046996.8,N
1514708295.3,286046997.1,N
1514708315.1,286046997.8,N
1514708335.9,286046997.1,N
1514708355.7,286046998.7,N
1514708375.5,286047000.8,N
1514708395.4,286047002.4,N
1514708415.2,286046999.7,N
1514708435.0,286046998.7,N
1514708436.0,286046998.7,N
1514708455.8,286046999.4,N
1514708475.6,286046999.8,N
1514708495.5,286046999.0,N
1514708515.3,286046998.6,N
1514708535.1,286046998.3,N
1514708555.9,286046998.6,N
1514708575.7,286046998.9,N
1514708595.6,286047002.7,N
1514708615.4,286047000.7,N
1514708635.2,286047002.6,N
1514708655.1,286046996.6,N
1514708656.0,286046996.6,N
1514708675.8,286046995.3,N
1514708695.6,286046996.8,N
1514708715.5,286046999.2,N
1514708735.3,286046997.5,N
1514708755.2,286046998.4,N
1514708775.0,286047000.7,N
1514708775.9,286047000.7,N
1514708795.7,286047000.0,N
1514708815.6,286046999.7,N
1514708835.4,286047000.1,N
1514708855.3,286047000.0,N
1514708875.1,286047002.1,N
1514708895.8,286047000.6,N
1514708915.7,286047000.9,N
1514708935.5,286046999.1,N
1514708955.4,286046999.2,N
1514708975.2,286046998.6,N
1514708995.0,286047002.6,N
1514708995.9,286047002.6,N
1514709015.8,286046999.9,N
1514709035.6,286047000.5,N
1514709055.4,286046999.7,N
1514709075.3,286046999.8,N
1514709095.1,286047001.5,N
1514709115.9,286047002.6,N
1514709135.7,286047000.7,N
1514709155.5,286047000.1,N
1514709175.4,286047001.4,N
1514709195.2,286047002.6,N
1514709215.1,286047002.5,N
1514709216.0,286047002.5,N
1514709235.8,286046999.9,N
1514709255.6,286047001.7,N
1514709275.5,286047002.8,N
1514709295.3,286046999.8,N
1514709315.2,286047002.6,N
1514709335.9,286047001.3,N
1514709355.8,286047002.2,N
1514709375.7,286047002.8,N
1514709395.5,286046998.1,N
1514709415.4,286046999.0,N
1514709435.2,286046998.9,N
1514709455.0,286046999.9,N
1514709455.9,286046999.9,N
1514709475.8,286047000.8,N
1514709495.6,286046998.9,N
1514709515.5,286046999.3,N
1514709535.3,286046998.4,N
1514709555.1,286047001.2,N
1514709575.9,286047000.1,N
1514709595.7,286047000.9,N
1514709615.5,286046999.3,N
1514709635.4,286046997.9,N
1514709655.2,286046995.1,Y
1514709675.1,286046995.7,P
1514709676.0,286046995.7,N
1514709695.8,286046996.8,N
1514709715.6,286046998.9,N
1514709735.5,286046999.2,N
1514709755.3,286046997.3,N
1514709775.2,286046997.3,N
1514709795.9,286046998.2,N
1514709815.7,286047002.3,N
1514709835.6,286047000.2,N
1514709855.4,286047001.1,N
1514709875.2,286047002.2,N
1514709895.1,286047003.2,N
1514709896.0,286047003.2,N
1514709915.8,286047001.4,N
1514709935.7,286047000.1,N
1514709955.5,286046999.7,N
1514709975.3,286047002.5,N
1514709995.2,286047001.8,N
1514710015.0,286047000.0,N
1514710015.9,286047000.0,N
1514710035.8,286047002.5,N
1514710055.6,286047001.1,N
1514710075.4,286047000.4,N
1514710095.3,286046998.4,N
1514710115.1,286046999.1,N
1514710135.9,286046997.0,N
1514710155.7,286046998.0,N
1514710175.5,286046999.6,N
1514710195.4,286046998.3,N
1514710215.2,286047000.5,N
1514710235.0,286046999.1,N
1514710235.9,286046999.1,N
1514710255.8,286046996.7,N
1514710275.6,286046997.4,N
1514710295.5,286046996.9,N
1514710315.3,286046998.8,N
1514710335.1,286046998.1,N
1514710355.9,286047000.9,N
1514710375.7,286046998.6,N
1514710395.5,286046998.2,N
1514710415.4,286046998.7,N
1514710435.2,286046996.5,N
1514710455.1,286046997.5,N
1514710456.0,286046997.5,N
1514710475.8,286046999.0,N
1514710495.6,286046998.8,N
1514710515.5,286046998.1,N
1514710535.3,286046998.3,N
1514710555.2,286047000.6,N
1514710575.9,286047000.0,N
1514710595.7,286046998.3,N
1514710615.6,286046999.0,N
1514710635.4,286046998.3,N
1514710655.2,286046997.0,N
1514710675.1,286046999.4,N
1514710676.0,286046999.4,N
1514710695.8,286046994.9,Y
1514710715.7,286046997.0,P
1514710735.5,286046999.6,N
1514710755.3,286046996.8,P
1514710775.2,286046996.4,Y
1514710795.0,286046998.0,P
1514710795.9,286046998.0,P
